Time,TemperatureF,DewpointF,PressureIn,WindDirection,WindDirectionDegrees,WindSpeedMPH,WindSpeedGustMPH,Humidity,HourlyPrecipIn,Conditions,Clouds,dailyrainin,SoftwareType,DateUTC
2013-02-24 00:00:00,43.6,36.2,30.00,ENE,68,2.5,2.5,75,0.00,,,0.00,WUHU216HW,2013-02-24 08:00:00,
2013-02-24 00:05:00,43.6,36.5,30.00,ENE,68,1.8,2.5,76,0.00,,,0.00,WUHU216HW,2013-02-24 08:05:00,
2013-02-24 00:10:00,43.6,36.5,30.00,ENE,68,1.8,1.8,76,0.00,,,0.00,WUHU216HW,2013-02-24 08:10:00,
2013-02-24 00:30:00,44.6,37.9,30.00,ENE,68,2.7,2.7,77,0.00,,,0.00,WUHU216HW,2013-02-24 08:30:00,
2013-02-24 00:35:00,44.6,37.9,30.00,East,90,2.5,2.7,77,0.00,,,0.00,WUHU216HW,2013-02-24 08:35:00,
2013-02-24 00:40:00,44.6,37.9,30.00,East,90,2.5,2.5,77,0.00,,,0.00,WUHU216HW,2013-02-24 08:40:00,
2013-02-24 01:00:00,43.6,36.8,30.00,ENE,68,4.0,4.0,77,0.00,,,0.00,WUHU216HW,2013-02-24 09:00:00,
2013-02-24 01:05:00,43.6,36.8,30.00,East,90,3.4,4.0,77,0.00,,,0.00,WUHU216HW,2013-02-24 09:05:00,
2013-02-24 01:10:00,43.6,36.8,30.00,East,90,3.4,4.0,77,0.00,,,0.00,WUHU216HW,2013-02-24 09:10:00,
2013-02-24 01:30:00,43.2,36.1,30.00,ENE,68,3.4,3.4,76,0.00,,,0.00,WUHU216HW,2013-02-24 09:30:00,
2013-02-24 01:35:00,43.2,36.1,30.00,ENE,68,3.4,3.4,76,0.00,,,0.00,WUHU216HW,2013-02-24 09:35:00,
2013-02-24 01:40:00,43.2,36.1,30.00,ENE,68,3.4,3.4,76,0.00,,,0.00,WUHU216HW,2013-02-24 09:40:00,
2013-02-24 01:59:00,43.0,36.9,29.99,ESE,113,3.4,3.4,79,0.00,,,0.00,WUHU216HW,2013-02-24 09:59:00,
2013-02-24 02:04:00,43.0,36.9,29.99,East,90,3.1,3.4,79,0.00,,,0.00,WUHU216HW,2013-02-24 10:04:00,
2013-02-24 02:09:00,43.0,36.9,29.99,East,90,3.1,3.1,79,0.00,,,0.00,WUHU216HW,2013-02-24 10:09:00,
2013-02-24 02:30:00,42.7,36.5,29.99,ENE,68,3.4,3.4,79,0.00,,,0.00,WUHU216HW,2013-02-24 10:30:00,
2013-02-24 02:35:00,42.7,36.5,29.99,East,90,3.1,3.4,79,0.00,,,0.00,WUHU216HW,2013-02-24 10:35:00,
2013-02-24 02:40:00,42.7,36.5,29.99,East,90,3.1,3.4,79,0.00,,,0.00,WUHU216HW,2013-02-24 10:40:00,
2013-02-24 02:59:00,42.7,35.9,29.98,ESE,113,0.7,0.7,77,0.00,,,0.00,WUHU216HW,2013-02-24 10:59:00,
2013-02-24 03:04:00,42.7,35.9,29.98,ESE,113,1.6,1.6,77,0.00,,,0.00,WUHU216HW,2013-02-24 11:04:00,
2013-02-24 03:09:00,42.7,35.9,29.98,ESE,113,1.6,1.6,77,0.00,,,0.00,WUHU216HW,2013-02-24 11:09:00,
2013-02-24 03:30:00,43.2,36.1,29.98,East,90,3.8,3.8,76,0.00,,,0.00,WUHU216HW,2013-02-24 11:30:00,
2013-02-24 03:35:00,43.2,36.1,29.98,ENE,68,3.4,3.8,76,0.00,,,0.00,WUHU216HW,2013-02-24 11:35:00,
2013-02-24 03:40:00,43.2,36.1,29.98,ENE,68,3.4,3.8,76,0.00,,,0.00,WUHU216HW,2013-02-24 11:40:00,
2013-02-24 03:59:00,44.1,35.3,29.98,East,90,1.8,1.8,71,0.00,,,0.00,WUHU216HW,2013-02-24 11:59:00,
2013-02-24 04:04:00,44.1,35.0,29.98,East,90,2.5,2.5,70,0.00,,,0.00,WUHU216HW,2013-02-24 12:04:00,
2013-02-24 04:09:00,44.1,35.0,29.98,East,90,2.5,2.5,70,0.00,,,0.00,WUHU216HW,2013-02-24 12:09:00,
2013-02-24 04:30:00,43.9,34.0,29.98,NE,45,0.2,0.2,68,0.00,,,0.00,WUHU216HW,2013-02-24 12:30:00,
2013-02-24 04:35:00,43.9,34.0,29.98,NE,45,0.2,0.2,68,0.00,,,0.00,WUHU216HW,2013-02-24 12:35:00,
2013-02-24 04:59:00,44.8,32.6,29.99,ENE,68,4.5,4.5,62,0.00,,,0.00,WUHU216HW,2013-02-24 12:59:00,
2013-02-24 05:04:00,44.6,32.4,29.99,ENE,68,4.7,4.7,62,0.00,,,0.00,WUHU216HW,2013-02-24 13:04:00,
2013-02-24 05:09:00,44.6,32.4,29.99,ENE,68,4.7,4.7,62,0.00,,,0.00,WUHU216HW,2013-02-24 13:09:00,
2013-02-24 05:30:00,45.0,32.4,29.99,ENE,68,2.2,2.2,61,0.00,,,0.00,WUHU216HW,2013-02-24 13:30:00,
2013-02-24 05:35:00,45.0,32.4,30.00,ENE,68,3.8,3.8,61,0.00,,,0.00,WUHU216HW,2013-02-24 13:35:00,
2013-02-24 05:40:00,45.0,32.4,30.00,ENE,68,3.8,3.8,61,0.00,,,0.00,WUHU216HW,2013-02-24 13:40:00,
2013-02-24 05:59:00,43.6,31.4,30.00,NE,45,5.1,5.1,62,0.00,,,0.00,WUHU216HW,2013-02-24 13:59:00,
2013-02-24 06:04:00,43.6,31.4,30.00,NE,45,4.5,5.1,62,0.00,,,0.00,WUHU216HW,2013-02-24 14:04:00,
2013-02-24 06:09:00,43.6,31.4,30.00,NE,45,4.5,4.5,62,0.00,,,0.00,WUHU216HW,2013-02-24 14:09:00,
2013-02-24 06:30:00,43.0,32.9,30.00,NE,45,0.0,0.0,67,0.00,,,0.00,WUHU216HW,2013-02-24 14:30:00,
2013-02-24 06:35:00,43.0,32.9,30.00,NE,45,0.0,0.0,67,0.00,,,0.00,WUHU216HW,2013-02-24 14:35:00,
2013-02-24 06:40:00,43.0,32.9,30.00,NE,45,0.0,0.0,67,0.00,,,0.00,WUHU216HW,2013-02-24 14:40:00,
2013-02-24 07:00:00,43.0,32.4,30.01,NNE,23,0.0,0.0,66,0.00,,,0.00,WUHU216HW,2013-02-24 15:00:00,
2013-02-24 07:05:00,43.0,32.4,30.01,NNE,23,0.0,0.0,66,0.00,,,0.00,WUHU216HW,2013-02-24 15:05:00,
2013-02-24 07:10:00,43.0,32.4,30.01,NNE,23,0.0,0.0,66,0.00,,,0.00,WUHU216HW,2013-02-24 15:10:00,
2013-02-24 07:30:00,46.3,30.9,30.03,ENE,68,2.5,2.5,55,0.00,,,0.00,WUHU216HW,2013-02-24 15:30:00,
2013-02-24 07:35:00,46.3,30.9,30.03,ENE,68,2.5,2.5,55,0.00,,,0.00,WUHU216HW,2013-02-24 15:35:00,
2013-02-24 07:40:00,46.3,30.9,30.03,ENE,68,2.5,2.5,55,0.00,,,0.00,WUHU216HW,2013-02-24 15:40:00,
2013-02-24 07:59:00,48.2,29.9,30.03,East,90,4.9,4.9,49,0.00,,,0.00,WUHU216HW,2013-02-24 15:59:00,
2013-02-24 08:04:00,48.2,30.4,30.03,East,90,4.0,4.9,50,0.00,,,0.00,WUHU216HW,2013-02-24 16:04:00,
2013-02-24 08:09:00,48.2,30.4,30.03,East,90,4.0,4.0,50,0.00,,,0.00,WUHU216HW,2013-02-24 16:09:00,
2013-02-24 08:30:00,50.4,33.0,30.04,ESE,113,4.7,4.7,51,0.00,,,0.00,WUHU216HW,2013-02-24 16:30:00,
2013-02-24 08:35:00,50.4,33.0,30.04,ESE,113,4.7,4.7,51,0.00,,,0.00,WUHU216HW,2013-02-24 16:35:00,
2013-02-24 08:40:00,50.4,33.0,30.04,ESE,113,4.7,4.7,51,0.00,,,0.00,WUHU216HW,2013-02-24 16:40:00,
2013-02-24 08:59:00,51.8,30.5,30.04,ENE,68,6.7,6.7,44,0.00,,,0.00,WUHU216HW,2013-02-24 16:59:00,
2013-02-24 09:04:00,52.0,30.7,30.04,East,90,3.6,6.7,44,0.00,,,0.00,WUHU216HW,2013-02-24 17:04:00,
2013-02-24 09:10:00,52.0,30.7,30.04,East,90,3.6,5.4,44,0.00,,,0.00,WUHU216HW,2013-02-24 17:10:00,
2013-02-24 09:30:00,54.4,33.8,30.04,WSW,248,0.9,0.9,46,0.00,,,0.00,WUHU216HW,2013-02-24 17:30:00,
2013-02-24 09:35:00,54.4,33.8,30.04,East,90,2.9,2.9,46,0.00,,,0.00,WUHU216HW,2013-02-24 17:35:00,
2013-02-24 09:40:00,54.4,33.8,30.04,East,90,2.9,2.9,46,0.00,,,0.00,WUHU216HW,2013-02-24 17:40:00,
2013-02-24 09:59:00,55.1,30.5,30.04,ESE,113,4.3,4.3,39,0.00,,,0.00,WUHU216HW,2013-02-24 17:59:00,
2013-02-24 10:04:00,55.3,31.3,30.04,East,90,8.3,8.3,40,0.00,,,0.00,WUHU216HW,2013-02-24 18:04:00,
2013-02-24 10:09:00,55.3,31.3,30.04,East,90,8.3,8.3,40,0.00,,,0.00,WUHU216HW,2013-02-24 18:09:00,
2013-02-24 10:30:00,56.5,33.0,30.04,ENE,68,3.4,3.4,41,0.00,,,0.00,WUHU216HW,2013-02-24 18:30:00,
2013-02-24 10:35:00,56.5,33.0,30.04,East,90,2.5,3.4,41,0.00,,,0.00,WUHU216HW,2013-02-24 18:35:00,
2013-02-24 10:40:00,56.5,33.0,30.04,East,90,2.5,2.5,41,0.00,,,0.00,WUHU216HW,2013-02-24 18:40:00,
2013-02-24 10:59:00,58.3,32.0,30.04,SSE,158,4.7,4.7,37,0.00,,,0.00,WUHU216HW,2013-02-24 18:59:00,
2013-02-24 11:04:00,58.3,32.0,30.04,ESE,113,2.7,4.7,37,0.00,,,0.00,WUHU216HW,2013-02-24 19:04:00,
2013-02-24 11:09:00,58.3,32.0,30.04,ESE,113,2.7,4.7,37,0.00,,,0.00,WUHU216HW,2013-02-24 19:09:00,
2013-02-24 11:30:00,59.4,30.9,30.03,ESE,113,5.4,5.4,34,0.00,,,0.00,WUHU216HW,2013-02-24 19:30:00,
2013-02-24 11:35:00,59.4,30.9,30.03,ESE,113,7.6,7.6,34,0.00,,,0.00,WUHU216HW,2013-02-24 19:35:00,
2013-02-24 11:40:00,59.4,30.9,30.03,ESE,113,7.6,7.6,34,0.00,,,0.00,WUHU216HW,2013-02-24 19:40:00,
2013-02-24 12:00:00,60.1,29.4,30.02,ENE,68,4.9,4.9,31,0.00,,,0.00,WUHU216HW,2013-02-24 20:00:00,
2013-02-24 12:04:00,60.1,29.4,30.02,East,90,4.0,4.9,31,0.00,,,0.00,WUHU216HW,2013-02-24 20:04:00,
2013-02-24 12:09:00,60.1,29.4,30.02,East,90,4.0,4.9,31,0.00,,,0.00,WUHU216HW,2013-02-24 20:09:00,
2013-02-24 12:30:00,61.7,31.4,30.00,East,90,6.3,6.3,32,0.00,,,0.00,WUHU216HW,2013-02-24 20:30:00,
2013-02-24 12:35:00,61.7,31.4,30.01,East,90,3.6,6.3,32,0.00,,,0.00,WUHU216HW,2013-02-24 20:35:00,
2013-02-24 12:40:00,61.7,31.4,30.01,East,90,3.6,6.3,32,0.00,,,0.00,WUHU216HW,2013-02-24 20:40:00,
2013-02-24 13:00:00,63.0,31.9,29.99,ESE,113,8.5,8.5,31,0.00,,,0.00,WUHU216HW,2013-02-24 21:00:00,
2013-02-24 13:05:00,63.0,31.9,29.99,ESE,113,8.5,8.5,31,0.00,,,0.00,WUHU216HW,2013-02-24 21:05:00,
2013-02-24 13:10:00,63.0,31.9,29.99,ESE,113,8.5,8.5,31,0.00,,,0.00,WUHU216HW,2013-02-24 21:10:00,
2013-02-24 13:30:00,62.6,31.5,29.98,ESE,113,6.9,6.9,31,0.00,,,0.00,WUHU216HW,2013-02-24 21:30:00,
2013-02-24 13:35:00,62.6,31.5,29.98,East,90,7.2,7.2,31,0.00,,,0.00,WUHU216HW,2013-02-24 21:35:00,
2013-02-24 13:40:00,62.6,31.5,29.98,East,90,7.2,7.2,31,0.00,,,0.00,WUHU216HW,2013-02-24 21:40:00,
2013-02-24 14:00:00,62.8,31.0,29.97,ENE,68,8.5,8.5,30,0.00,,,0.00,WUHU216HW,2013-02-24 22:00:00,
2013-02-24 14:05:00,62.8,31.0,29.97,ENE,68,5.4,8.5,30,0.00,,,0.00,WUHU216HW,2013-02-24 22:05:00,
2013-02-24 14:09:00,62.8,31.0,29.97,ENE,68,5.4,5.4,30,0.00,,,0.00,WUHU216HW,2013-02-24 22:09:00,
2013-02-24 14:30:00,64.4,33.1,29.97,East,90,2.2,2.2,31,0.00,,,0.00,WUHU216HW,2013-02-24 22:30:00,
2013-02-24 14:35:00,64.4,33.1,29.97,NE,45,1.6,2.2,31,0.00,,,0.00,WUHU216HW,2013-02-24 22:35:00,
2013-02-24 14:40:00,64.4,33.1,29.97,NE,45,1.6,1.6,31,0.00,,,0.00,WUHU216HW,2013-02-24 22:40:00,
2013-02-24 14:59:00,62.6,38.0,29.97,WNW,293,6.9,6.9,40,0.00,,,0.00,WUHU216HW,2013-02-24 22:59:00,
2013-02-24 15:04:00,62.5,37.8,29.97,West,270,8.9,8.9,40,0.00,,,0.00,WUHU216HW,2013-02-24 23:04:00,
2013-02-24 15:09:00,62.5,37.8,29.97,West,270,8.9,8.9,40,0.00,,,0.00,WUHU216HW,2013-02-24 23:09:00,
2013-02-24 15:30:00,59.8,38.3,29.97,WNW,293,11.4,11.4,45,0.00,,,0.00,WUHU216HW,2013-02-24 23:30:00,
2013-02-24 15:35:00,59.8,38.3,29.97,WNW,293,11.4,11.4,45,0.00,,,0.00,WUHU216HW,2013-02-24 23:35:00,
2013-02-24 15:40:00,59.8,38.3,29.97,WNW,293,11.4,11.4,45,0.00,,,0.00,WUHU216HW,2013-02-24 23:40:00,
2013-02-24 15:59:00,59.2,38.3,29.97,WNW,293,8.1,8.1,46,0.00,,,0.00,WUHU216HW,2013-02-24 23:59:00,
2013-02-24 16:04:00,59.2,39.0,29.97,WNW,293,8.1,8.1,47,0.00,,,0.00,WUHU216HW,2013-02-25 00:04:00,
2013-02-24 16:09:00,59.2,39.0,29.97,WNW,293,8.1,8.1,47,0.00,,,0.00,WUHU216HW,2013-02-25 00:09:00,
2013-02-24 16:30:00,58.3,39.2,29.96,WNW,293,11.2,11.2,49,0.00,,,0.00,WUHU216HW,2013-02-25 00:30:00,
2013-02-24 16:35:00,58.3,39.2,29.96,SW,225,11.4,11.4,49,0.00,,,0.00,WUHU216HW,2013-02-25 00:35:00,
2013-02-24 16:40:00,58.3,39.2,29.96,SW,225,11.4,11.4,49,0.00,,,0.00,WUHU216HW,2013-02-25 00:40:00,
2013-02-24 16:59:00,57.6,41.0,29.97,WNW,293,10.1,10.1,54,0.00,,,0.00,WUHU216HW,2013-02-25 00:59:00,
2013-02-24 17:04:00,57.6,41.0,29.97,West,270,7.2,10.1,54,0.00,,,0.00,WUHU216HW,2013-02-25 01:04:00,
2013-02-24 17:09:00,57.6,41.0,29.97,West,270,7.2,7.2,54,0.00,,,0.00,WUHU216HW,2013-02-25 01:09:00,
2013-02-24 17:30:00,55.6,42.4,29.97,NW,315,3.8,3.8,61,0.00,,,0.00,WUHU216HW,2013-02-25 01:30:00,
2013-02-24 17:35:00,55.6,42.4,29.97,NW,315,5.6,5.6,61,0.00,,,0.00,WUHU216HW,2013-02-25 01:35:00,
2013-02-24 17:40:00,55.6,42.4,29.97,NW,315,5.6,5.6,61,0.00,,,0.00,WUHU216HW,2013-02-25 01:40:00,
2013-02-24 17:59:00,54.7,42.0,29.98,NW,315,2.9,2.9,62,0.00,,,0.00,WUHU216HW,2013-02-25 01:59:00,
2013-02-24 18:04:00,54.7,42.0,29.98,NNW,338,1.1,2.9,62,0.00,,,0.00,WUHU216HW,2013-02-25 02:04:00,
2013-02-24 18:09:00,54.7,42.0,29.98,NNW,338,1.1,1.8,62,0.00,,,0.00,WUHU216HW,2013-02-25 02:09:00,
2013-02-24 18:30:00,52.9,41.1,30.00,SE,135,2.9,2.9,64,0.00,,,0.00,WUHU216HW,2013-02-25 02:30:00,
2013-02-24 18:35:00,52.9,41.1,30.00,SE,135,2.9,2.9,64,0.00,,,0.00,WUHU216HW,2013-02-25 02:35:00,
2013-02-24 18:40:00,52.9,41.1,30.00,SE,135,2.9,2.9,64,0.00,,,0.00,WUHU216HW,2013-02-25 02:40:00,
2013-02-24 18:59:00,51.3,41.1,30.00,SE,135,4.0,4.0,68,0.00,,,0.00,WUHU216HW,2013-02-25 02:59:00,
2013-02-24 19:04:00,51.3,41.1,30.00,SE,135,4.0,4.0,68,0.00,,,0.00,WUHU216HW,2013-02-25 03:04:00,
2013-02-24 19:09:00,51.3,41.1,30.00,SE,135,4.0,4.0,68,0.00,,,0.00,WUHU216HW,2013-02-25 03:09:00,
2013-02-24 19:30:00,50.0,40.7,30.02,SE,135,0.7,0.7,70,0.00,,,0.00,WUHU216HW,2013-02-25 03:30:00,
2013-02-24 19:35:00,50.0,40.7,30.02,SE,135,0.4,0.7,70,0.00,,,0.00,WUHU216HW,2013-02-25 03:35:00,
2013-02-24 19:40:00,50.0,40.7,30.02,SE,135,0.4,0.7,70,0.00,,,0.00,WUHU216HW,2013-02-25 03:40:00,
2013-02-24 19:59:00,49.3,41.0,30.02,ESE,113,2.0,2.0,73,0.00,,,0.00,WUHU216HW,2013-02-25 03:59:00,
2013-02-24 20:04:00,49.3,41.0,30.02,East,90,2.5,2.5,73,0.00,,,0.00,WUHU216HW,2013-02-25 04:04:00,
2013-02-24 20:09:00,49.3,41.0,30.02,East,90,2.5,2.5,73,0.00,,,0.00,WUHU216HW,2013-02-25 04:09:00,
2013-02-24 20:30:00,48.8,40.8,30.03,East,90,3.1,3.1,74,0.00,,,0.00,WUHU216HW,2013-02-25 04:30:00,
2013-02-24 20:35:00,48.8,40.8,30.03,East,90,2.5,3.1,74,0.00,,,0.00,WUHU216HW,2013-02-25 04:35:00,
2013-02-24 20:40:00,48.8,40.8,30.03,East,90,2.5,3.1,74,0.00,,,0.00,WUHU216HW,2013-02-25 04:40:00,
2013-02-24 20:59:00,48.6,40.6,30.04,NE,45,2.7,2.7,74,0.00,,,0.00,WUHU216HW,2013-02-25 04:59:00,
2013-02-24 21:00:00,48.6,40.6,30.04,NE,45,2.7,2.7,74,0.00,,,0.00,WUHU216HW,2013-02-25 05:00:00,
2013-02-24 21:05:00,48.6,40.6,30.04,ENE,68,2.7,2.9,74,0.00,,,0.00,WUHU216HW,2013-02-25 05:05:00,
2013-02-24 21:30:00,47.9,39.2,30.04,NNE,23,0.7,0.7,72,0.00,,,0.00,WUHU216HW,2013-02-25 05:30:00,
2013-02-24 21:35:00,47.9,39.2,30.04,NNE,23,0.7,0.7,72,0.00,,,0.00,WUHU216HW,2013-02-25 05:35:00,
2013-02-24 21:40:00,47.9,39.2,30.04,NNE,23,0.7,0.7,72,0.00,,,0.00,WUHU216HW,2013-02-25 05:40:00,
2013-02-24 21:59:00,47.3,38.8,30.05,NNE,23,0.2,0.2,72,0.00,,,0.00,WUHU216HW,2013-02-25 05:59:00,
2013-02-24 22:04:00,47.3,38.8,30.05,NNE,23,0.2,0.2,72,0.00,,,0.00,WUHU216HW,2013-02-25 06:04:00,
2013-02-24 22:09:00,47.3,38.8,30.05,NNE,23,0.2,0.2,72,0.00,,,0.00,WUHU216HW,2013-02-25 06:09:00,
2013-02-24 22:30:00,47.2,38.6,30.06,NNW,338,0.4,0.4,72,0.00,,,0.00,WUHU216HW,2013-02-25 06:30:00,
2013-02-24 22:35:00,47.2,38.6,30.06,NNW,338,0.4,0.4,72,0.00,,,0.00,WUHU216HW,2013-02-25 06:35:00,
2013-02-24 22:40:00,47.2,38.6,30.06,NNW,338,0.4,0.4,72,0.00,,,0.00,WUHU216HW,2013-02-25 06:40:00,
2013-02-24 22:59:00,46.3,37.8,30.07,NNW,338,0.0,0.0,72,0.00,,,0.00,WUHU216HW,2013-02-25 06:59:00,
2013-02-24 23:04:00,46.3,37.8,30.07,NNW,338,0.0,0.0,72,0.00,,,0.00,WUHU216HW,2013-02-25 07:04:00,
2013-02-24 23:09:00,46.3,37.8,30.07,NNW,338,0.0,0.0,72,0.00,,,0.00,WUHU216HW,2013-02-25 07:09:00,
2013-02-24 23:30:00,45.9,37.7,30.06,NE,45,0.2,0.2,73,0.00,,,0.00,WUHU216HW,2013-02-25 07:30:00,
2013-02-24 23:35:00,45.9,37.7,30.06,NE,45,0.4,0.4,73,0.00,,,0.00,WUHU216HW,2013-02-25 07:35:00,
2013-02-24 23:40:00,45.9,37.7,30.06,NE,45,0.4,0.4,73,0.00,,,0.00,WUHU216HW,2013-02-25 07:40:00,
2013-02-24 23:59:00,45.7,37.3,30.06,NNE,23,0.9,0.9,72,0.00,,,0.00,WUHU216HW,2013-02-25 07:59:00,